Location: Invercargill
(46.4000°S, 168.3500°E)
Time: 11:27:37
(UTC+13:00)

Daily predictions for brighter satellites

Satellite Brightness Start Highest point End
(mag) Time Altitude Azimuth Time Altitude Azimuth Time Altitude Azimuth
YAOGAN 1 2.9 20:50:06 10° SSE 20:54:23 47° E 20:58:36 10° N
CZ-4C R/B 3.3 20:51:12 10° N 20:58:39 42° ENE 21:05:18 10° SE
Cosmos 1869 4.3 20:57:43 10° S 21:01:24 31° ESE 21:05:02 10° NE
FengYun 1-2 T 4.3 20:56:19 10° SSE 21:02:03 72° ENE 21:07:44 10° N
CSL-04 Rocket 3.9 20:57:13 10° SSE 21:02:42 54° E 21:08:10 10° N
Cosmos 1842 Rocket 3.8 21:00:19 10° SSW 21:04:44 76° W 21:09:07 10° N
DELTA 2 R/B (1) 4.3 21:02:06 10° WNW 21:07:19 39° N 21:12:30 10° ENE
Cosmos 2221 2.5 21:04:13 10° S 21:08:40 85° E 21:13:01 10° N
Lacrosse 4 Rocket 3.7 21:08:14 10° S 21:10:50 15° SE 21:13:24 10° ESE
Cosmos 1892 4.3 21:11:34 11° NE 21:13:51 17° E 21:16:27 10° SE
BREEZE-M DEB (TANK) 2.3 21:14:08 10° WSW 21:16:29 40° S 21:19:20 10° ESE
Meteor 1-27 4.4 21:11:21 10° SSW 21:17:10 83° W 21:22:50 10° N
Ariane Rocket 3.6 21:13:08 10° SSE 21:17:52 36° E 21:22:34 10° NNE
USA 229 DEB 3.7 21:11:42 10° SW 21:18:41 89° NW 21:25:18 10° NE
USA 229 3.7 21:11:43 10° SW 21:18:45 90° SE 21:25:21 10° NE
DMSP B5D2-2 4.1 21:14:21 10° NNE 21:19:35 86° ESE 21:24:55 10° SSW
Cosmos 1697 Rocket 3.9 21:14:45 10° S 21:19:36 27° SE 21:23:50 12° ENE
ERBS 4.5 21:17:02 10° SSW 21:19:37 19° SSE 21:22:12 10° ESE
Cosmos 1076 Rocket 3.5 21:15:30 10° N 21:19:43 59° E 21:24:00 10° SSE
Cosmos 2100 Rocket 4.2 21:14:07 10° NNE 21:20:07 53° E 21:26:15 10° SSE
BREEZE-M DEB (TANK) 3.6 21:17:32 10° WSW 21:21:12 71° SSE 21:33:38 10° E
ATLAS CENTAUR R/B 3.8 21:06:23 10° NNW 21:21:41 65° NE 21:27:10 10° ESE
NOAA 11 4.4 21:16:21 10° SSE 21:21:49 52° E 21:27:11 10° N
COSMOS 2406 3.6 21:18:52 10° N 21:24:12 43° ENE 21:29:34 10° SE
CZ-4 R/B 2.0 21:20:18 10° S 21:24:16 61° WSW 21:28:16 10° NNW
SL-8 R/B 4.0 21:19:28 10° W 21:24:21 70° S 21:29:14 10° E
Okean 3 Rocket 4.4 21:20:38 10° NNE 21:24:33 32° E 21:28:31 10° SSE
NOSS 3-1 (A) 3.6 21:18:22 10° SW 21:24:59 65° SE 21:29:46 15° NE
Cosmos 2058 3.2 21:21:30 10° NNE 21:25:31 48° E 21:29:35 10° SSE
FREGAT/IRIS 3.8 21:23:53 10° SE 21:26:13 22° E 21:27:08 19° ENE
Meteor 2-20 Rocket 4.5 21:20:30 10° S 21:26:42 68° ESE 21:32:48 10° NNE
MOS 1 Rocket 4.4 21:24:44 14° ENE 21:28:09 31° ESE 21:32:38 10° S
USA 186 3.2 21:28:11 10° SE 21:30:58 22° E 21:31:59 19° ENE
USA 215 4.3 21:26:57 10° ESE 21:31:48 21° ENE 21:36:36 10° N
Cosmos 2016 Rocket 4.3 21:30:59 10° NNE 21:37:02 47° E 21:43:07 10° SSE
NOSS 3-1 (C) 3.5 21:33:02 10° SW 21:39:32 74° NW 21:44:19 15° NNE
MONITOR-E 4.2 21:36:52 10° SSE 21:39:39 44° E 21:41:27 18° NNE
Cosmos 2151 3.6 21:36:44 14° NNE 21:39:54 35° E 21:43:50 10° SSE
SJ-6B 4.0 21:37:01 10° SE 21:40:28 25° E 21:41:47 21° ENE
CZ-2C R/B 2.6 21:39:49 10° NNE 21:45:04 90° NNE 21:50:21 10° SSW
BREEZE-M R/B 4.4 21:34:27 10° WSW 21:49:31 90° NW 21:51:48 24° ENE
ISS -3.4 21:46:18 10° WNW 21:49:42 69° SSW 21:53:07 10° ESE
IRS-1A Rocket 4.3 21:45:30 10° SSE 21:51:16 60° ENE 21:56:51 10° N
Cosmos 1656 3.8 21:47:04 10° SSW 21:52:47 69° ESE 21:56:36 22° NE
Cosmos 1408 3.7 21:57:07 25° E 21:57:07 25° E 22:00:07 10° SSE
Cosmos 2322 Rocket 4.4 21:55:27 10° S 21:57:49 12° SE 22:00:10 10° ESE
Cosmos 1356 Rocket 3.4 21:53:53 10° SSW 21:58:08 88° W 22:00:59 19° N
Cosmos 773 Rocket 4.5 21:57:11 10° SSW 22:02:23 59° WNW 22:06:51 14° N
Cosmos 2278 4.3 21:57:39 10° SSW 22:03:08 43° SE 22:05:57 25° ENE
HJ-1C 3.8 22:00:48 10° S 22:04:17 66° WSW 22:07:41 10° NNW
SPOT 3 Rocket 4.0 22:00:46 10° SSE 22:05:38 38° E 22:07:46 27° NE
USA 267 4.2 22:02:06 11° E 22:07:58 43° SSE 22:14:06 10° SW
Cosmos 1459 Rocket 4.2 22:01:48 10° NNW 22:08:13 76° W 22:14:40 10° S
SJ-11-01 4.3 22:04:14 10° SSE 22:09:04 66° ENE 22:13:00 15° N
NOSS 2-3 (C) 4.4 22:02:12 10° SW 22:09:25 86° SE 22:12:33 29° NE
Cosmos 1980 Rocket 3.0 22:07:08 10° SSW 22:12:21 36° SE 22:14:45 25° E
Cosmos 2061 Rocket 4.0 22:06:56 10° N 22:13:12 88° E 22:19:38 10° S
Resurs 01 Rocket 3.1 22:11:21 10° SE 22:14:09 21° E 22:14:09 21° E
Cosmos 1833 Rocket 2.8 22:11:43 10° N 22:17:12 54° ENE 22:22:45 10° SE
Cosmos 1680 Rocket 3.8 22:12:48 10° SSW 22:18:05 55° ESE 22:20:09 34° ENE
Cosmos 1515 Rocket 4.0 22:15:51 10° S 22:20:11 46° ESE 22:21:09 39° ENE
H-2A R/B 2.2 22:16:23 10° SSE 22:21:17 49° E 22:23:03 34° NNE
Cosmos 1743 Rocket 4.3 22:22:32 33° E 22:22:32 33° E 22:26:33 10° SSE
Resurs 1-3 4.4 22:18:35 10° SSE 22:22:30 33° E 22:22:30 33° E
Tsikada Rocket 3.9 22:16:54 10° S 22:23:12 77° E 22:26:44 27° NNE
SJ 16-02 3.2 22:27:05 18° ESE 22:27:05 18° ESE 22:28:49 10° SE
Genesis I 3.9 22:22:02 10° SW 22:25:51 48° WNW 22:27:02 35° N
Mayak 0.2 22:30:32 24° ESE 22:30:42 24° ESE 22:34:11 10° SSE
EO 1 Del DPAF 3.2 22:29:46 50° N 22:30:43 84° WNW 22:34:36 10° SSW
Meteor 2-3 Rocket 4.4 22:30:36 34° ENE 22:31:27 35° E 22:36:40 10° SSE
Cosmos 923 Rocket 4.0 22:26:59 10° SSW 22:32:27 90° E 22:34:36 38° NNE
Cosmos 1151 Rocket 2.9 22:28:11 10° S 22:32:35 88° ESE 22:33:48 47° N
ATLAS CENTAUR Rocket 4.4 21:56:03 10° WNW 22:34:35 33° NNW 22:38:39 25° NNE
Cosmos 1606 3.4 22:34:45 10° S 22:38:19 41° ESE 22:38:19 41° ESE
Cosmos 1825 2.2 22:44:05 65° ESE 22:44:05 65° ESE 22:47:40 10° SSE
Meteor 1-26 Rocket 4.5 22:38:42 10° S 22:44:07 51° ESE 22:45:15 44° ENE
CZ-4C R/B 3.4 22:39:27 10° WNW 22:47:16 58° SW 22:53:58 10° SE
Thor Agena Rocket 3.6 22:45:27 38° N 22:47:25 71° WNW 22:52:35 10° SSW
Cosmos 1238 Rocket 3.6 22:49:36 36° SE 22:49:36 36° SE 22:51:50 10° SSE
Cosmos 1892 4.1 22:46:30 15° NW 22:49:15 37° WSW 22:52:54 10° S
Cosmos 2082 Rocket 2.1 22:47:05 35° N 22:49:28 66° ENE 22:55:06 10° SSE
Lacrosse 4 Rocket 1.4 22:45:46 10° SSW 22:50:20 76° ESE 22:50:47 68° ENE
Cosmos 1328 Rocket 4.1 22:46:19 10° SSW 22:50:39 55° W 22:52:01 38° NNW
ARGOS 3.0 22:45:19 10° SSE 22:50:48 80° ENE 22:52:58 38° N
DELTA 2 R/B (1) 4.1 22:47:56 10° WNW 22:53:12 40° N 22:53:16 40° N
Cosmos 1500 Rocket 3.5 22:56:33 65° ESE 22:56:33 65° ESE 23:00:44 10° SSE
ERBS 3.0 22:53:03 10° SW 22:55:50 53° SSW 22:55:50 53° SSW
Cosmos 2228 Rocket 3.0 22:52:20 10° S 22:56:58 73° E 22:57:11 71° ENE
Cosmos 2233 Rocket 4.0 22:55:04 29° N 22:58:36 87° WSW 23:04:58 10° S
Lacrosse 5 rocket 4.0 23:04:11 12° ESE 23:04:11 12° ESE 23:04:28 10° SE
Cosmos 1408 Rocket 4.3 22:58:57 28° NW 23:01:06 52° WSW 23:05:34 10° S
USA 186 4.1 22:58:53 10° SSW 23:01:47 25° WSW 23:03:41 16° WNW
Cosmos 1697 Rocket 3.0 22:58:21 10° SSW 23:03:57 58° WNW 23:05:35 42° NNW
Cosmos 2360 4.2 23:00:12 10° SSW 23:05:59 82° WNW 23:07:12 57° NNE
SL-8 R/B 3.6 23:02:13 10° WSW 23:07:08 87° SSE 23:07:30 77° E
Cosmos 1933 3.5 23:04:05 10° SSW 23:08:06 70° W 23:08:06 70° W
SL-16 R/B 3.1 23:09:54 10° SSW 23:15:11 36° SE 23:16:05 34° ESE
USA 215 3.1 23:08:54 10° SE 23:15:32 73° NE 23:22:07 10° NW
CZ-2C R/B 3.1 23:12:59 10° SSE 23:18:19 82° WSW 23:19:45 51° NNW
Cosmos 1898 Rocket 3.4 23:17:37 68° NNW 23:18:20 86° ENE 23:23:44 10° SSE
SL-08 RB Rocket 4.2 23:19:03 10° S 23:23:45 61° WSW 23:24:39 50° WNW
Cosmos 2034 Rocket 4.4 23:25:25 47° E 23:25:30 47° E 23:31:37 10° SSE
ISS -1.7 23:23:40 10° WSW 23:26:03 29° SSW 23:26:03 29° SSW
Spot 2 Rocket 3.8 23:24:36 10° SSE 23:28:53 53° ESE 23:28:53 53° ESE
Cosmos 1782 3.9 23:31:06 10° S 23:33:53 42° S 23:33:53 42° S
Meteor 2-6 Rocket 4.3 23:36:50 10° S 23:42:45 67° ESE 23:42:50 67° E
Cosmos 2322 Rocket 2.7 23:37:46 10° SSW 23:43:23 49° ESE 23:43:34 49° ESE
Cosmos 158 Rocket 4.4 23:41:23 10° SSW 23:46:17 52° WNW 23:46:17 52° WNW
Cosmos 1400 Rocket 4.2 23:44:42 10° SSW 23:47:18 37° SSW 23:47:18 37° SSW
USA 267 3.2 23:49:25 65° ENE 23:50:33 86° SE 23:57:13 10° SW
Cosmos 2360 Rocket 3.4 23:45:32 10° SSW 23:50:35 31° SE 23:51:06 31° ESE
Resurs 01 Rocket 2.6 23:47:15 10° S 23:51:32 43° WSW 23:51:43 43° WSW
Cosmos 1461 4.3 23:53:42 39° SSE 23:53:42 39° SSE 23:56:43 10° SE
